Regional Weather Roundup
Issued by NWS Midland/Odessa, TX

Skip options and go directly to product.
Home | Oldest Version | Previous Version | Current Version | All | Graphics & Text | Save Text | Print | Product List | Glossary On

Skip product version selection by date and time.   
278
ASUS44 KMAF 020810
RWRMAF
MIDLAND AREA WEATHER ROUNDUP
NATIONAL WEATHER SERVICE MIDLAND TX
300 AM CDT WED SEP 02 2015

...IN SOUTHWEST TEXAS AND SOUTHEAST NEW MEXICO...

CITY           SKY/WX    TMP DP  RH WIND       PRES   REMARKS
ALPINE         CLEAR     66  53  62 S7        30.21F
ANDREWS        FAIR      69  54  57 SW3       30.09F
ARTESIA        PTCLDY    73  52  46 SE8       30.09S
BIG SPRING     CLEAR     72  52  49 SE8       30.08S
CARLSBAD       CLEAR     77  50  38 S12       30.06S
DRYDEN           N/A     77  63  61 E6        30.03S
FORT STOCKTON  CLEAR     73  55  53 S12       30.06F
GUAD PASS      LGT RAIN  71  50  47 NE24      30.21S
HOBBS            N/A     66  52  59 CALM      30.12S
MARFA          PTCLDY    57  48  72 N6        30.20S
MIDLAND AIRPK  CLEAR     74  54  48 CALM      30.07S
MIDLAND INTL   CLEAR     73  53  49 S6        30.06F
ODESSA         CLEAR     76  51  41 S9        30.08S
PECOS          CLEAR     73  51  45 SE7       30.03F
PRESIDIO       NOT AVBL
SEMINOLE       CLEAR     67  52  57 SW5       30.11S
SNYDER         CLEAR     74  59  59 SE9       30.06R
WINK           CLEAR     72  53  51 SE6       30.05S
$$
...OTHER STATIONS IN TEXAS...

CITY           SKY/WX    TMP DP  RH WIND       PRES   REMARKS
ABILENE        CLEAR     74  64  71 S12       30.05S
AMARILLO       PTCLDY    70  55  59 S10       30.09F
AUSTIN         PTCLDY    68  66  93 CALM      30.06S
BROWNSVILLE    PTCLDY    77  75  93 NE3       29.97F
CORPUS CHRISTI PTCLDY    76  73  91 SE3       29.99F
DALLAS FTW     CLEAR     77  67  71 S8        30.03S
DEL RIO        CLEAR     78  68  71 E10       30.01S
EL PASO        MOCLDY    81  45  28 NE3       30.07R
HOUSTON INT    MOCLDY    75  73  93 NE5       30.02F
LUBBOCK        CLEAR     73  54  51 S8        30.09F
SAN ANGELO     CLEAR     77  63  61 S9        30.04S
SAN ANTONIO    MOCLDY    75  69  81 SE7       30.06S
WACO           CLEAR     75  68  78 S12       30.05S
WICHITA FALLS  NOT AVBL
$$
...OTHER LOCATIONS IN NEW MEXICO...

CITY           SKY/WX    TMP DP  RH WIND       PRES   REMARKS
ALAMAGORDO     PTCLDY    72  45  37 N5        30.10S
ALBUQUERQUE    PTCLDY    71  44  37 S6        30.18F
CANNON AFB     PTCLDY    72  51  48 SW6       30.14F
CLOVIS         MOCLDY    66  52  59 SW8       30.15F
HOLLOMAN AFB   PTCLDY    76  47  35 E6        30.07F
ROSWELL        PTCLDY    73  51  46 SE5       30.10S
RUIDOSO        MOCLDY    59  46  63 MISG      30.33S
SANTA FE       NOT AVBL
TRUTH OR CONSE PTCLDY    70  48  45 W5        30.14F
TUCUMCARI      MOCLDY    78  50  37 S13       30.07F
$$

USA.gov is the U.S. government's official web portal to all federal, state and local government web resources and services.